User: anonymous   Login
Location: Unspecified
(0.0000°N, 0.0000°E)
Time: 22:00:02
(UTC+02:00)
Language:

Sapphire - Orbit

View from above orbital plane
View from above orbital plane
View from above satellite
View from above satellite

Ground track
Ground track

The orbit data is extracted from the following two-line orbital elements,

1 26932U 01043D   17266.25649400 -.00000021  00000-0  23885-4 0  9996
2 26932  67.0562 200.6342 0007874 250.6239 109.4011 14.30258815834390
Epoch (UTC): 23 September 2017 06:09:21
Eccentricity: 0.0007874
inclination: 67.0562°
perigee height: 785 km
apogee height: 796 km
right ascension of ascending node: 200.6342°
argument of perigee: 250.6239°
revolutions per day: 14.30258815
mean anomaly at epoch: 109.4011°
orbit number at epoch: 83439

The dashed part of the orbit path shows where the satellite is in the earth's shadow,  

DLR